CZ-4C DEB, 40113

Orbit data source: Space-Track

CZ-4C DEB, 40113 is space debris in LEO originally from a launch on Sat, 09 Aug 2014 UTC launched from the Jiuquan Satellite Launch Center, China (JSC). Debris objects in space refer to the collection of defunct objects orbiting the Earth. Examples of debris include non-operational satellites, rocket bodies, and fragments generated from explosions, collisions, or faulty payload assembly.

Loading next visibility...
Identifier
40113, 2014-047E
Orbit
LEO
Country
Flag of CNCN / PRC
Related business
Manufacturer
CAST
Mission
Spacecraft
Bus & Motor
Unknown
Mass
Unknown
Launch date (UTC)
2014-08-09 (12 years ago)
Launch vehicle
Unknown
Launch site
Jiuquan Satellite Launch Center, China (JSC)
Object type
Payload
Rocket body
Debris
Shape & HBR
Unknown shape, 3.4 m
Radar Cross Section
Large (>1 m²)

Expand to show TLE details & history
Last TLE update: 8 hours ago

TLE from 8 hours ago
0 CZ-4C DEB
1 40113U 14047E   26111.91283861 -.00000012  00000-0  85221-4 0  9990
2 40113  63.3791 185.2849 0387914  15.2861 345.9502 13.44706278574390
Epoch: 2026-04-21T21:54Z
TLE epoch observation values (Epoch: 2026-04-21T21:54:29.255Z)
Latitude
0.00001°
Longitude
6.6812°
Altitude
813.139 km
Speed
7.586 km/s
True Right ascension
12h 21m 08s
True Declination
0° 00' 00"
Sunlit
Object was in full shadow at epoch
Visualization orbit readout
Latitude
Unknown
Longitude
Unknown
Altitude
Unknown
Speed
Unknown
Apparent Right ascension
Unknown
Apparent Declination
Unknown
Sunlit
N/A
Visualization observer readout
Local Sidereal Time
13:21:24
Azimuth
Unknown
Elevation
Unknown
Doppler factor
Unknown
Orbital elements
Apogee altitude
1,380.353 km
Perigee altitude
800.905 km
Semi-major axis
7,468.766 km
Eccentricity
0.03879
Inclination
63.3791°
RAAN
185.2849°
Arg. of periapsis
15.2861°
True anomaly
344.81799°
Mean anomaly
345.9502°
Eccentric anomaly
345.38956°
Mean motion
3.36256 °/min
Orbital period
107.06 mins
BSTAR
0.000085221
Loading maneuver chart data...
Computing Atmospheric mass density...
Loading historical data...
Loading historical data...
Loading historical data...
Loading historical data...
Loading historical data...
Loading historical data...
Loading historical data...

Documentation

Showing up to 5 results
|